Showing default

COSMOS 88, 1586

Orbit data source: Space-Track

COSMOS 88, 1586 is a payload satellite owned by OKB-10 (CIS) in LEO that was launched on Sat, 18 Sep 1965 UTC via a KOSMOS 65S3 launch vehicle from the Tyuratam Missile And Space Complex (TTMTR). Payload-class satellites include a variety of spacecraft equipped with specific instruments for various scientific and technological missions. These include communications satellites like Starlink; space stations such as the ISS; scientific satellites like the Hubble; Earth observation satellites from companies like Planet Labs, Umbra, and HawkEye 360; GPS; miniature CubeSats for education and research; and military/defense satellites.

Loading next visibility...
Identifier
1586, 1965-073C
Orbit
LEO
Last TLE update
15 hours ago
Origin
Manufacturer
OKB-10
Mission
Defense Communications
Bus & Motor
STRELA-1 11F610, Unknown motor
Mass
50 kg wet, 50 kg dry
Launch date (UTC)
1965-09-18 (60 years ago)
Launch vehicle
KOSMOS 65S3
Launch site
Tyuratam Missile And Space Complex (TTMTR)
Object type
Payload
Rocket body
Debris
Shape & HBR
Poly, 0.8 m
Radar Cross Section
0.731 m², Medium (>0.1 m² and < 1m²)

Expand to show TLE details & history

TLE from 15 hours ago
0 COSMOS 88
1  1586U 65073C   25181.89094557 -.00000094  00000-0  64092-5 0  9995
2  1586  56.0584 239.4542 0189439  60.4488 120.8914 12.43339863715306
Epoch: 2025-06-30T21:22Z
TLE epoch observation values (Epoch: 2025-06-30T21:22:57.697Z)
Latitude
-2.72709°
Longitude
-178.65224°
Altitude
1,572.526 km
Speed
7.047 km/s
True Right ascension
04h 05m 07s
True Declination
-2° 42' 45"
Sunlit
Object was in daylight at epoch
Visualization orbit readout
Latitude
55.03194°
Longitude
104.61053°
Altitude
1,381.711 km
Speed
7.228 km/s
Apparent Right ascension
16h 14m 10s
Apparent Declination
59° 05' 20"
Sunlit
Object is in daylight
Visualization observer readout
Local Sidereal Time
00:01:15
Azimuth
330.374° NNW
Elevation
21.905°
Doppler factor
1
Orbital elements
Apogee altitude
1,641.397 km
Perigee altitude
1,343.204 km
Semi-major axis
7,870.437 km
Eccentricity
0.01894
Inclination
56.0584°
RAAN
239.4542°
Arg. of periapsis
60.4488°
True anomaly
Unknown
Mean anomaly
120.8914°
Eccentric anomaly
Unknown
Mean motion
3.10846 °/min
Orbital period
115.81 mins
BSTAR
0.0000064092
Loading maneuver chart data...
Loading SW <> Apogee altitude chart data...
Loading historical data...
Loading historical data...
Loading historical data...
Loading historical data...
Loading historical data...
Loading historical data...
Loading historical data...

COSMOS 88 Visibility forecast

Observer location: undefined°, undefined°

Span
Click to sort rows by Start time (UTC) header in descending order
Start Az.
Max El. time (UTC)
Max El. Az.
Max El.
End time (UTC)
End Az.
13 mins2025-07-01 12:22:29.075Z330.252° NNW2025-07-01 12:27:29.075Z27.023° NE34.785°2025-07-01 12:35:29.075Z99.595° ESE
15 mins2025-07-01 14:22:29.075Z307.376° NW2025-07-01 14:29:29.075Z215.944° SW42.052°2025-07-01 14:37:29.075Z152.615° SSE
6 mins2025-07-01 16:26:29.075Z263.477° W2025-07-01 16:28:29.075Z249.167° W13.277°2025-07-01 16:32:29.075Z221.946° SW
14 mins2025-07-02 05:20:29.075Z197.334° SSW2025-07-02 05:27:29.075Z123.984° SE38.573°2025-07-02 05:34:29.075Z54.522° ENE
14 mins2025-07-02 07:21:29.075Z256.025° W2025-07-02 07:28:29.075Z328.451° NNW36.934°2025-07-02 07:35:29.075Z38.517° NE
11 mins2025-07-02 09:26:29.075Z308.596° NW2025-07-02 09:31:29.075Z354.925° N24.06°2025-07-02 09:37:29.075Z45.479° ENE
13 mins2025-07-02 11:29:29.075Z327.979° NNW2025-07-02 11:34:29.075Z16.43° NNE29.426°2025-07-02 11:42:29.075Z85.195° E
|